Regional Weather Roundup
Issued by NWS Goodland, KS

Home | Current Version | Previous Version | Graphics & Text | Print | Product List | Glossary On
Versions: 1 2 3 4 5 6 7 8 9 10 11 12 13 14 15 16 17 18 19 20 21 22 23 24 25 26 27 28 29 30 31 32 33 34 35 36 37 38 39 40 41 42 43 44 45 46 47 48 49 50
000
ASUS43 KGLD 292108
RWRGLD

GOODLAND FORECAST AREA HOURLY WEATHER ROUNDUP
NATIONAL WEATHER SERVICE GOODLAND KS
300 PM MDT SAT APR 29 2017

...OFFICIAL OBSERVATIONS...

CITY           SKY/WX    TMP DP  RH WIND       PRES   REMARKS
GOODLAND KS    CLOUDY    35  33  92 N26G35    30.03S
HILL CITY KS   LGT RAIN  40  37  89 N28G43    29.97F FOG
IMPERIAL NEB   CLOUDY    44  23  43 NE25G35   30.10F
MCCOOK NEB     CLOUDY    41  35  79 N23G31    30.05F
AKRON CO       LGT RAIN  38  18  44 NE24G41   30.12S
BURLINGTON CO  NOT AVBL
LIMON CO       LGT SNOW  29  27  92 N28G33    30.08F VSB 1   WCI  14
$$

...UNOFFICIAL OBSERVATIONS...

CITY           SKY/WX    TMP DP  RH WIND       PRES   REMARKS
LENORA KS        N/A     38  32  79 MISG        N/A
NORTON KS      CLOUDY    39  32  75 N26G35    29.98F
TRENTON NEB      N/A     41  32  70 NE14G22     N/A
KIT CARSON CO    N/A     33  29  86 MISG        N/A
$$



USA.gov is the U.S. government's official web portal to all federal, state and local government web resources and services.